Location: Sternwarte_Laufen
(47.9344°N, 12.9346°E)
Time: 07:23:11
(UTC+01:00)

BlueWalker 3 - Pass Details

Date: 08 February 2023
Orbit: 497 x 515 km, 53.2° (Epoch: 23 March)

Event Time Altitude Azimuth Distance (km) Brightness Sun altitude
Rises 17:57:30 0° 293° (WNW) 2,600 6.5 -6.9°
Reaches altitude 10° 17:59:45 10° 300° (WNW) 1,718 5.4 -7.3°
Maximum altitude 18:03:30 45° 14° (NNE) 698 2.5 -7.9°
Enters shadow 18:07:08 11° 88° (E) 1,675 3.9 -8.5°
